Flag for Germany Weather past 2 weeks in Güstrow, Mecklenburg-Western Pomerania, Germany

Now
54 °F

Passing clouds.


Feels Like: 49 °F
Forecast: 44 / 59 °F
Wind: 14 mph from West

Location: Laage

Current Time: Sep 22, 2014 at 5:16:50 AM

Latest Report: Sep 22, 2014 at 4:20 AM


Visibility: N/A

Pressure: 29.77 "Hg

Humidity: 94%

Dew point: 52 °F

Location of GüstrowLocation

Historic Weather in Güstrow — Graph

°F

Güstrow temperature yesterday

Maximum temperature yesterday: 63 °F (at 11:20 AM)
Minimum temperature yesterday: 52 °F (at 5:20 AM)
Average temperature yesterday: 58 °F

Past Weeks' High & Low Weather Summary

 TemperatureHumidityPressure
High75 °F (Sep 15, 2:20 PM)100% (Sep 7, 9:20 PM)30.21 "Hg (Sep 7, 9:20 PM)
Low48 °F (Sep 11, 6:20 AM)50% (Sep 17, 12:20 PM)29.77 "Hg (Sep 22, 3:20 AM)
Average61 °F85%30.04 "Hg
* Reported Sep 7 3:20 AM — Sep 22 3:20 AM, Güstrow, Weather by CustomWeather, © 2014

Note: Actual official high and low records may vary slightly from our data, if they occured in-between our weather recording intervals... More about our weather records

Advertising

Güstrow weather history for previous 24 hours

 ConditionsComfort  
Time TempWeatherWind HumidityBarometerVisibility
3:20 AM
Sep 22
54 °FPassing clouds.9 mph94%29.77 "HgN/A
2:20 AM54 °FPassing clouds.10 mph88%29.80 "HgN/A
1:20 AM54 °FPassing clouds.8 mph94%29.80 "HgN/A
12:20 AM55 °FSprinkles. Passing clouds.9 mph88%29.80 "HgN/A
11:20 PM
Sep 21
55 °FPassing clouds.13 mph88%29.80 "HgN/A
10:20 PM57 °FPassing clouds.13 mph77%29.80 "HgN/A
9:20 PM57 °FPassing clouds.12 mph77%29.80 "HgN/A
8:20 PM57 °FPassing clouds.13 mph77%29.80 "HgN/A
7:20 PM59 °FPassing clouds.15 mph72%29.83 "HgN/A
6:20 PM61 °FPassing clouds.17 mph68%29.83 "HgN/A
5:20 PM63 °FPassing clouds.17 mph59%29.83 "HgN/A
4:20 PM63 °FPassing clouds.20 mph64%29.83 "HgN/A
3:20 PM63 °FScattered clouds.20 mph64%29.83 "HgN/A
2:20 PM63 °FPartly sunny.18 mph73%29.86 "HgN/A
1:20 PM61 °FScattered showers. Partly sunny.12 mph94%29.86 "Hg4 mi
12:49 PM61 °FRain showers. Partly sunny.14 mph83%29.86 "Hg2 mi
12:20 PM61 °FPartly sunny.10 mph88%29.86 "Hg4 mi
11:20 AM63 °FPartly sunny.12 mph83%29.86 "Hg4 mi
10:20 AM61 °FFog.12 mph94%29.86 "Hg3 mi
9:57 AM61 °FFog.8 mph94%29.83 "Hg2 mi
9:20 AM59 °FFog.6 mph100%29.83 "Hg1 mi
8:20 AM57 °FLight rain. Fog.7 mph100%29.83 "Hg1 mi
7:20 AM54 °FThundershowers. Fog.5 mph100%29.83 "Hg1 mi
6:20 AM54 °FFog.3 mph100%29.83 "Hg0 mi
5:20 AM52 °FFog.2 mph100%29.83 "Hg1 mi
Weather by CustomWeather, © 2014

See weather overviewHow to use our weather pages